This demonstration page uses our WeatherBlox Daily Observations layout. Learn more.

Left ArrowRight Arrow

Hourly Observations for December 7, 2018

Temp ( °F °C ) Dew Point ( °F °C ) Humidity (%) Winds ( mph kmh ) Pressure ( in mb ) Visibility ( mi km ) Precip ( " mm )
12:57 am 00:57 Cloudy 17 -8.3 15 -9.4 92 92 Calm 30.48 1032 10 16 0.00 0.00
1:57 am 01:57 Mostly Cloudy 18 -7.8 16 -8.9 92 92 SSE 3 6 30.48 1032 10 16 0.00 0.00
2:57 am 02:57 Mostly Cloudy 17 -8.3 15 -9.4 92 92 SSE 7 11 30.49 1032 10 16 0.00 0.00
3:57 am 03:57 Mostly Cloudy 17 -8.3 15 -9.4 92 92 S 9 15 30.48 1032 10 16 0.00 0.00
4:57 am 04:57 Clear 16 -8.9 14 -10 92 92 SSW 9 15 30.47 1032 10 16 0.00 0.00
5:57 am 05:57 Clear 17 -8.3 15 -9.4 92 92 SSW 9 15 30.48 1032 8 13 0.00 0.00
6:57 am 06:57 Clear 17 -8.3 15 -9.4 92 92 SSW 9 15 30.49 1032 9 14 0.00 0.00
7:57 am 07:57 Sunny 17 -8.3 15 -9.4 92 92 SSW 8 13 30.49 1033 7 11 0.00 0.00
8:57 am 08:57 Sunny 19 -7.2 17 -8.3 92 92 SW 8 13 30.50 1033 7 11 0.00 0.00
9:57 am 09:57 Sunny 22 -5.6 19 -7.2 89 89 SW 10 17 30.51 1033 8 13 0.00 0.00
10:57 am 10:57 Sunny 25 -3.9 20 -6.7 81 81 SW 13 20 30.51 1033 9 14 0.00 0.00
11:57 am 11:57 Sunny 28 -2.2 21 -6.1 75 75 SW 17 28 30.49 1032 10 16 0.00 0.00
12:57 pm 12:57 Sunny 30 -1.1 21 -6.1 69 69 SSW 13 20 30.46 1031 10 16 0.00 0.00
1:57 pm 13:57 Sunny 32 0 21 -6.1 64 64 SW 9 15 30.44 1031 10 16 0.00 0.00
2:57 pm 14:57 Sunny 34 1.1 21 -6.1 59 59 WSW 7 11 30.43 1031 10 16 0.00 0.00
3:57 pm 15:57 Sunny 33 0.6 21 -6.1 61 61 WNW 3 6 30.44 1031 10 16 0.00 0.00
4:57 pm 16:57 Sunny 28 -2.2 21 -6.1 75 75 SSW 6 9 30.48 1032 10 16 0.00 0.00
5:57 pm 17:57 Clear 23 -5 19 -7.2 85 85 SSW 5 7 30.49 1033 10 16 0.00 0.00
6:57 pm 18:57 Clear 20 -6.7 16 -8.9 85 85 NNW 5 7 30.50 1033 9 14 0.00 0.00
7:57 pm 19:57 Clear 17 -8.3 13 -10.6 84 84 NNW 3 6 30.51 1033 9 14 0.00 0.00
8:57 pm 20:57 Clear 15 -9.4 12 -11.1 88 88 NW 5 7 30.50 1033 7 11 0.00 0.00
9:57 pm 21:57 Clear 14 -10 11 -11.7 88 88 NW 5 7 30.50 1033 8 13 0.00 0.00
10:57 pm 22:57 Clear 14 -10 11 -11.7 88 88 WNW 6 9 30.52 1033 8 13 0.00 0.00
11:57 pm 23:57 Clear 12 -11.1 10 -12.2 92 92 NNW 3 6 30.52 1034 10 16 0.00 0.00

Powered by AerisWeather